{"data":{"norad_id":57912,"intl_designator":"2023-146X","name":"STARLINK-30477","alt_names":[],"object_type":"PAYLOAD","status":"ACTIVE","operator":null,"country":"US","launch_date":"2023-09-20","launch_site_code":"AFETR","launch_vehicle":null,"mission":null,"orbit_class":"UNKNOWN","rcs_meters":null,"size_class":null,"mass_kg":null,"dimensions":null,"purposes":["comms"],"wikipedia_slug":null,"has_3d_model":false,"image_url":null,"decayed_at":null,"tle_current":{"epoch":"2026-05-24T23:06:19.846080Z","epoch_age_seconds":78598,"freshness":"FRESH","line1":"1 57912U 23146X   26144.96272970  .00002386  00000+0  96195-4 0  9991","line2":"2 57912  43.0018 239.8352 0001312 273.2881  86.7820 15.27580526148760","mean_motion":15.27580526,"eccentricity":0.0001312,"inclination_deg":43.0018,"raan_deg":239.8352,"arg_perigee_deg":273.2881,"mean_anomaly_deg":86.782,"bstar":9.6195e-5,"rev_number":14876,"period_min":94.266716254276,"perigee_km":482.14733359772,"apogee_km":483.94770841603,"semimajor_km":6861.1845210069,"source":"CELESTRAK","updated_at":"2026-05-25T13:38:18.456006Z"}}}